Regional Weather Roundup
Issued by NWS

Home | Current Version | Previous Version | Text Only | Print | Product List | Glossary Off
Versions: 1 2 3 4 5 6 7 8 9 10 11 12 13 14 15 16 17 18 19 20 21 22 23 24 25 26 27 28 29 30 31 32 33 34 35 36 37 38 39 40 41 42 43 44 45 46 47 48 49 50

000
ASUS43 KOAX 292102
RWRNE

WEATHER ROUNDUP FOR NEBRASKA
NATIONAL WEATHER SERVICE OMAHA NE
400 PM CDT FRI MAY 29 2015

NOTES: SATELLITE DATA IS BEING USED TO AUGMENT CLOUD COVER ABOVE
       12000 FEET.
       "FAIR" INDICATES FEW OR NO CLOUDS BELOW 12,000 FEET WITH NO
       SIGNIFICANT WEATHER AND/OR OBSTRUCTIONS TO VISIBILITY.

  * THESE STATIONS DO NOT REPORT WEATHER SUCH AS RAIN...SNOW OR FOG.

NEZ001>004-019>022-054>056-292200-
NEBRASKA PANHANDLE

CITY           SKY/WX    TMP DP  RH WIND       PRES   REMARKS
SCOTTSBLUFF    LGT RAIN  50  47  89 N14       30.25S FOG
ALLIANCE       RAIN      47  46  97 N20       30.24R FOG
CHADRON        LGT RAIN  48  45  89 NE15      30.28R FOG
KIMBALL          N/A    N/A N/A N/A MISG        N/A
SIDNEY         LGT RAIN  53  49  86 N17G26    30.22R
$$

NEZ057>060-069>072-079>082-292200-
SOUTHWEST NEBRASKA

CITY           SKY/WX    TMP DP  RH WIND       PRES   REMARKS
NORTH PLATTE   CLOUDY    57  51  80 N17G28    30.13R
IMPERIAL         N/A     62  52  69 N29G38    30.13R
LEXINGTON      MOSUNNY   70  57  64 N25G32    30.03R
MCCOOK         LGT RAIN  72  55  55 N8        30.02S
$$

NEZ005>010-023>029-035>040-094-292200-
NORTH CENTRAL NEBRASKA

CITY           SKY/WX    TMP DP  RH WIND       PRES   REMARKS
VALENTINE      LGT RAIN  49  47  93 N21G31    30.18R FOG
AINSWORTH      RAIN      51  51  99 N21       30.16R
BROKEN BOW     CLOUDY    61  53  75 N24G33    30.07R
ORD            CLOUDY    60  52  74 N20       30.05R
$$

NEZ041-046>049-061>064-073>077-083>087-292200-
SOUTH CENTRAL NEBRASKA

CITY           SKY/WX    TMP DP  RH WIND       PRES   REMARKS
GRAND ISLAND   MOSUNNY   75  59  57 N18       29.98S
HASTINGS       PTSUNNY   76  60  57 N17       29.97F
KEARNEY *      CLOUDY    73  55  53 N22       29.99S
$$

NEZ011>018-030>034-042>045-292200-
NORTHEAST NEBRASKA

CITY           SKY/WX    TMP DP  RH WIND       PRES   REMARKS
NORFOLK        PTSUNNY   72  62  71 NW21G32   29.93R
BLAIR          CLOUDY    77  60  55 S10       29.91S
COLUMBUS *     PTSUNNY   75  57  53 NW15G23   29.93S
FREMONT        CLOUDY    78  60  54 SW6       29.91S
TEKAMAH        CLOUDY    80  61  52 SW13      29.88F
$$

NEZ050>053-065>068-078-088>093-292200-
SOUTHEAST NEBRASKA

CITY           SKY/WX    TMP DP  RH WIND       PRES   REMARKS
LINCOLN        CLOUDY    79  60  52 W9        29.92F
OMAHA EPPLEY   CLOUDY    78  60  53 S12       29.90F
FALLS CITY     CLOUDY    73  65  75 S10       29.94F
PLATTSMOUTH    CLOUDY    75  59  56 S9        29.92F
$$

NEZ044-045-051>053-067-292200-
OMAHA AREA

CITY           SKY/WX    TMP DP  RH WIND       PRES   REMARKS
OMAHA EPPLEY   CLOUDY    78  60  53 S12       29.90F
BLAIR          CLOUDY    77  60  55 S10       29.91S
FREMONT        CLOUDY    78  60  54 SW6       29.91S
OFFUTT AFB     CLOUDY    77  61  57 S9        29.90F
PLATTSMOUTH    CLOUDY    75  59  56 S9        29.92F
$$


USA.gov is the U.S. government's official web portal to all federal, state and local government web resources and services.